Lapse_Rate
4.0 4.0 4.3 4.6 4.7 5.9 6.4 6.5 7.1 6.9 7.1 7.6 7.7 7.5 7.3 7.2 7.2 7.5 7.5 7.4 7.3 7.2 7.2 7.2 7.3 7.1 6.9 6.8 6.8 7.3 7.0 6.6 6.5 6.4 6.4 6.2 5.6 5.5 5.6 5.8 5.3 5.3 5.1 5.8
4.1 5.1 5.7 5.4 6.2 6.2 6.2 7.5 7.4 7.4 7.1 8.0 7.7 7.5 7.2 7.5 7.5 7.5 7.6 7.5 7.3 7.5 7.6 7.5 7.1 7.0 7.3 7.1 6.8 7.0 6.7 6.2 5.7 5.9 5.9 5.8 5.8 5.7 5.7 5.7 5.5 5.6 6.0 5.9
5.6 6.2 6.6 6.8 7.6 7.6 7.5 7.3 7.1 7.0 7.1 7.1 7.1 7.4 7.4 7.2 7.2 7.6 7.5 7.4 7.0 6.8 6.9 7.2 7.2 7.2 6.9 6.9 6.4 6.2 6.2 6.4 6.2 5.9 5.8 5.8 5.8 5.9 6.5 6.3 5.7 5.6 6.2 6.2
7.1 7.7 7.9 8.4 8.3 7.6 7.0 6.9 7.0 7.0 7.0 7.1 7.0 7.6 7.3 7.5 7.5 7.5 7.4 7.2 7.2 7.1 7.1 7.3 7.1 7.2 7.1 6.8 6.6 6.4 6.5 6.5 6.5 6.1 6.1 6.2 6.1 6.0 6.0 5.9 6.0 6.2 6.1 6.3
8.0 9.0 8.3 7.8 7.9 7.3 6.6 7.1 7.0 6.7 7.0 7.0 7.2 7.4 7.0 7.0 7.1 6.9 7.1 7.2 7.1 7.2 7.3 7.2 7.4 7.3 7.2 6.8 6.3 6.0 6.6 6.4 6.4 6.5 6.4 6.2 6.3 6.3 6.5 6.5 6.4 6.4 6.5 6.4
8.2 8.4 8.1 9.1 7.9 7.6 7.1 7.0 6.8 6.6 6.7 6.4 7.0 7.5 7.0 7.0 6.9 7.0 7.2 7.2 7.2 7.3 7.2 7.2 7.4 7.7 8.0 7.8 6.5 6.2 6.2 6.4 6.5 6.4 6.4 6.8 6.6 6.5 6.5 6.4 6.2 6.2 6.1 6.4
8.4 8.3 8.3 8.2 7.0 7.3 7.2 7.1 6.6 6.6 6.5 6.5 6.8 7.0 7.0 7.1 7.0 6.9 7.0 7.1 7.1 7.2 7.3 7.3 7.2 7.2 7.2 7.6 7.8 6.7 6.5 6.4 6.7 6.4 6.6 6.7 6.7 6.5 6.4 6.3 6.4 6.4 6.5 6.6
8.6 8.5 8.2 7.6 7.4 6.7 6.8 6.8 6.5 6.6 6.9 7.0 7.0 7.2 7.0 6.9 6.9 6.9 6.9 6.8 7.1 7.2 7.3 7.3 7.3 7.2 7.1 7.0 7.2 7.4 7.3 6.7 6.6 6.7 6.7 6.6 6.6 6.7 6.8 6.7 6.5 6.4 6.5 6.6
8.1 8.3 8.1 7.7 6.8 7.0 6.5 6.5 6.9 6.8 7.1 7.0 7.2 7.2 7.3 7.2 7.0 6.9 6.8 6.7 6.7 6.7 6.8 6.9 7.2 7.4 7.3 7.2 7.2 7.2 7.2 7.1 7.0 6.9 6.7 6.7 7.0 6.6 7.0 7.1 6.9 7.0 6.9 6.8
7.5 7.5 6.9 6.8 6.9 6.6 6.5 6.7 6.9 6.9 7.0 6.9 7.2 7.4 7.4 7.6 7.2 7.0 6.9 6.8 6.8 6.8 6.7 6.5 6.8 7.1 7.3 7.4 7.1 7.1 7.1 7.3 7.6 7.4 7.0 6.8 6.9 6.7 6.7 6.6 6.9 6.9 6.7 6.6
6.5 7.0 6.8 6.8 6.7 6.7 6.7 6.8 7.1 7.1 6.9 6.8 7.1 7.4 7.4 7.5 7.4 7.2 7.2 7.2 7.1 7.1 6.8 6.8 6.8 6.9 7.0 7.3 7.4 7.2 6.7 7.1 7.6 7.6 7.1 6.8 7.1 6.8 6.8 6.6 6.4 6.5 6.6 6.7
6.6 6.6 6.7 6.9 6.7 6.7 6.8 6.9 6.9 6.9 7.2 6.9 7.0 7.2 7.3 7.5 7.5 7.4 7.3 7.1 7.1 7.0 6.9 6.9 6.9 7.2 7.2 7.2 7.2 7.0 6.8 7.0 7.4 7.3 7.3 7.1 7.0 6.6 6.6 6.5 6.3 6.7 6.7 6.4
6.6 7.0 6.9 6.8 6.9 6.8 6.8 6.8 6.8 6.7 6.6 7.0 7.0 7.1 7.1 7.2 7.3 7.3 7.2 7.2 7.3 7.3 7.3 7.3 7.3 7.2 7.3 7.2 6.8 6.4 6.6 6.8 7.2 7.3 7.0 7.1 7.0 6.8 6.7 6.7 6.7 6.3 6.4 6.6
6.8 6.6 6.8 6.7 6.7 6.8 6.8 6.7 6.7 6.5 6.6 6.8 7.1 7.1 7.1 7.0 7.2 7.3 7.4 7.4 7.6 7.7 7.6 7.4 7.3 7.4 7.2 7.3 6.9 6.5 7.0 7.1 7.2 6.9 6.6 6.9 6.9 6.5 6.7 6.6 6.4 6.6 6.7 6.6
6.8 6.7 6.7 6.8 6.7 6.7 6.7 6.9 7.1 7.2 7.2 7.1 7.0 7.1 7.1 7.3 7.4 7.5 7.4 7.5 7.6 7.7 7.6 7.4 7.3 7.3 7.2 7.1 6.8 6.7 6.7 6.7 6.7 6.7 6.9 6.7 6.4 6.4 6.9 6.8 6.6 6.4 6.1 6.1
6.9 6.9 6.9 7.0 7.1 7.1 7.0 7.1 7.3 7.6 7.5 7.6 7.5 7.4 7.3 7.4 7.5 7.6 7.5 7.5 7.7 7.6 7.3 7.1 6.8 6.8 7.2 7.1 6.9 6.8 6.8 6.6 6.6 6.8 6.9 6.9 6.9 7.0 6.8 6.5 6.3 6.2 6.1 6.0
7.2 7.2 7.2 7.1 7.2 7.4 7.5 7.4 7.5 7.6 7.7 7.6 7.6 7.5 7.4 7.4 7.4 7.4 7.5 7.5 7.3 7.1 7.1 6.7 6.8 6.7 6.6 6.8 6.9 6.8 6.8 6.8 6.8 6.8 7.0 6.7 6.7 6.6 6.4 6.3 6.1 6.1 6.0 6.0
7.2 7.4 7.5 7.5 7.6 7.5 7.4 7.3 7.3 7.4 7.5 7.5 7.5 7.5 7.4 7.4 7.4 7.4 7.2 7.3 7.2 7.1 7.1 6.7 6.8 6.8 6.8 6.8 6.9 6.8 6.7 6.7 6.6 6.8 6.8 6.6 6.5 6.3 6.1 6.0 6.0 5.9 5.9 5.9
7.2 7.2 7.3 7.3 7.3 7.2 7.2 7.3 7.3 7.3 7.4 7.4 7.5 7.4 7.3 7.3 7.3 7.2 7.2 7.3 7.3 7.1 7.0 6.9 6.7 6.7 6.8 6.8 6.6 6.6 6.5 6.6 6.6 6.5 6.4 6.3 6.2 6.1 6.0 6.1 6.0 5.9 5.9 5.9
7.3 7.3 7.2 7.1 7.1 7.0 7.2 7.2 7.2 7.2 7.2 7.3 7.4 7.4 7.4 7.3 7.3 7.3 7.2 7.2 7.2 7.1 6.9 6.8 6.7 6.5 6.5 6.5 6.4 6.4 6.4 6.3 6.2 6.1 6.3 6.3 6.1 6.0 6.0 6.0 6.1 6.1 6.0 5.8
7.5 7.4 7.3 7.3 7.2 7.1 7.0 7.0 7.1 7.3 7.3 7.3 7.3 7.3 7.4 7.4 7.3 7.3 7.2 7.1 7.1 7.1 6.9 7.0 6.7 6.7 6.7 6.7 6.6 6.5 6.5 6.4 6.4 6.2 6.4 6.4 6.2 6.0 6.0 6.2 6.2 6.1 5.9 5.6
7.3 7.3 7.3 7.2 7.1 7.1 7.0 7.0 7.1 7.2 7.3 7.4 7.3 7.2 7.3 7.3 7.2 7.2 7.3 7.2 7.1 7.2 7.3 7.1 7.0 6.8 6.7 6.7 6.6 6.6 6.6 6.6 6.5 6.3 6.2 6.2 6.1 6.2 6.1 6.1 6.1 6.0 5.8 5.8
7.2 7.2 7.2 7.1 7.2 7.2 7.1 7.1 6.9 6.9 7.1 7.2 7.3 7.3 7.2 7.2 7.3 7.2 7.1 7.1 7.1 7.0 7.0 7.1 6.9 6.7 6.8 6.8 6.7 6.6 6.4 6.3 6.3 6.2 6.2 6.2 6.1 6.1 6.1 6.0 5.9 5.9 5.9 5.9
7.3 7.2 7.2 7.1 7.0 6.9 7.0 6.9 7.0 7.0 7.1 7.1 7.1 7.2 7.3 7.3 7.1 7.2 7.1 7.1 7.0 6.9 6.9 6.7 6.7 6.6 6.5 6.5 6.5 6.5 6.4 6.3 6.2 6.2 6.2 6.1 6.0 6.0 6.0 6.0 6.0 6.0 6.1 6.2
7.1 7.2 7.1 7.1 7.1 7.1 7.2 7.3 7.4 7.4 7.4 7.2 7.1 7.1 7.2 7.2 7.3 7.4 7.3 7.2 7.0 6.9 6.8 6.7 6.6 6.5 6.4 6.3 6.3 6.3 6.3 6.2 6.2 6.2 6.1 6.1 6.1 6.1 6.1 6.1 6.1 6.2 6.3 6.4
7.2 7.2 7.3 7.4 7.3 7.4 7.5 7.5 7.4 7.5 7.6 7.6 7.6 7.4 7.1 7.0 7.1 7.1 7.2 7.2 7.0 7.0 6.8 6.7 6.6 6.5 6.4 6.3 6.3 6.3 6.3 6.4 6.4 6.3 6.3 6.3 6.3 6.3 6.3 6.3 6.4 6.5 6.5 6.6
6.6 6.7 7.0 7.3 7.4 7.3 7.3 7.2 7.2 7.4 7.4 7.5 7.5 7.6 7.4 7.1 6.9 7.0 7.0 7.1 7.0 6.9 6.8 6.7 6.7 6.6 6.6 6.5 6.4 6.4 6.4 6.4 6.4 6.4 6.3 6.4 6.5 6.5 6.5 6.5 6.5 6.6 6.6 6.6
Wind_Speed
17 21 24 26 27 27 24 25 23 28 33 33 29 26 24 22 22 21 19 17 15 15 14 11 10 11 9 8 7 9 11 11 10 10 13 17 16 15 14 15 14 11 12 10
16 21 22 25 28 27 25 22 20 23 32 27 21 22 23 22 17 17 16 12 12 9 8 4 6 6 7 9 10 11 11 10 11 12 13 15 16 17 15 16 15 15 15 14
17 18 17 16 13 10 14 17 21 21 24 22 23 25 22 17 15 10 7 10 12 12 10 11 9 9 5 9 9 9 13 13 12 12 15 16 17 17 16 17 18 15 15 15
12 16 18 14 15 6 12 20 22 14 23 22 24 26 16 8 10 11 10 8 4 3 6 7 10 7 7 11 11 8 11 15 15 14 17 18 18 18 18 16 16 14 14 14
7 11 19 19 2 10 18 31 6 15 26 25 24 10 10 7 10 7 6 6 5 6 7 8 10 5 9 9 11 10 8 12 15 15 16 17 17 19 17 16 15 14 14 14
11 14 18 10 9 19 24 15 12 21 22 21 17 3 4 16 8 5 5 4 6 5 4 6 7 3 8 8 10 12 12 10 13 14 16 17 19 17 15 15 15 12 14 14
13 17 13 11 15 16 7 8 24 23 21 17 13 10 14 13 12 7 6 7 7 8 7 6 4 0 4 9 9 9 11 13 12 13 15 15 17 16 16 15 14 12 12 11
13 10 9 8 20 7 10 24 23 23 18 20 19 17 15 13 10 10 10 7 7 7 7 5 3 1 1 3 8 12 13 14 13 12 11 12 16 14 15 15 14 12 11 10
7 9 18 21 6 16 19 21 22 14 16 15 18 17 15 14 12 9 9 10 5 6 5 5 4 2 0 2 6 12 13 14 14 13 11 14 15 14 12 14 13 13 12 11
13 9 10 19 20 18 14 18 17 13 16 16 16 17 16 13 12 10 8 8 8 5 6 4 3 2 1 6 8 10 12 13 14 14 13 13 10 10 10 11 11 11 11 11
17 16 16 15 12 17 23 20 16 17 17 15 16 17 16 15 14 12 10 7 6 6 5 6 5 3 4 8 11 10 10 11 12 12 13 12 11 11 10 11 11 11 11 11
12 13 10 21 21 24 20 15 14 16 18 18 16 17 19 16 12 10 9 8 7 5 5 6 7 6 7 8 11 10 10 10 9 11 10 10 10 7 6 8 9 10 14 12
14 14 17 20 20 16 13 13 13 14 13 17 16 15 16 15 15 14 10 8 8 7 4 6 9 9 9 9 9 10 11 11 9 10 10 11 11 11 11 9 9 12 15 16
15 13 10 5 7 13 12 13 12 11 10 12 13 15 15 14 15 13 11 9 9 9 7 6 9 11 12 13 11 10 9 13 9 9 9 9 10 10 10 11 10 10 11 14
11 10 3 5 9 11 11 12 13 13 12 13 14 15 15 15 15 14 13 10 10 9 9 7 10 11 13 13 13 12 10 9 8 8 8 9 9 10 10 12 11 10 9 11
9 4 3 7 10 11 11 12 13 13 13 10 12 15 16 14 13 13 11 8 7 7 6 6 1 5 10 12 12 10 10 14 11 9 9 9 10 10 10 10 10 10 10 10
7 7 8 9 9 11 11 11 11 13 14 13 11 13 14 15 12 13 11 6 3 4 4 2 2 5 8 9 10 9 9 9 12 9 9 9 9 10 11 10 11 11 9 10
4 6 7 8 9 10 10 11 10 12 12 14 11 10 10 11 12 12 11 7 2 3 3 3 4 6 8 8 8 8 9 10 9 9 8 8 9 10 10 11 11 10 9 11
4 6 7 8 9 10 11 11 10 11 10 12 11 10 9 8 10 11 10 6 4 3 1 3 5 6 7 8 9 6 9 10 9 8 9 10 10 10 10 10 10 10 10 10
5 6 7 9 10 10 11 12 12 10 10 9 10 10 10 9 9 10 10 7 4 3 2 5 5 6 7 7 7 6 9 9 9 8 8 9 8 8 9 11 11 9 9 10
6 7 9 9 9 8 5 8 9 9 9 7 8 9 10 11 9 9 8 7 6 6 3 5 5 5 5 6 6 6 7 7 8 9 9 8 9 10 9 9 9 9 9 9
8 8 7 7 8 8 6 7 9 9 9 10 9 8 10 11 9 8 4 4 6 5 2 2 4 8 7 9 7 7 8 9 8 8 8 8 9 9 9 9 9 9 9 9
7 7 8 7 8 10 8 7 8 8 9 9 10 10 9 9 8 7 7 6 6 4 2 2 2 6 9 6 6 7 8 8 8 8 8 8 8 8 9 9 8 9 9 9
8 9 9 9 9 9 10 11 11 10 7 9 9 8 9 8 9 6 4 7 6 4 4 1 4 8 10 5 6 7 7 8 7 7 9 10 8 8 8 8 8 8 8 9
8 9 8 9 10 8 10 11 11 10 11 11 12 10 11 7 5 9 8 8 8 6 4 3 5 7 5 5 6 7 8 8 8 8 7 8 8 8 8 8 8 9 8 9
8 7 7 9 8 7 8 9 9 9 9 9 9 7 8 7 7 7 7 7 7 6 5 3 4 5 5 5 6 6 6 7 7 7 8 7 8 8 8 9 9 10 9 8
7 7 7 7 6 7 8 9 9 10 10 10 11 10 10 8 8 9 8 7 6 6 5 4 5 6 5 6 6 6 6 6 8 7 7 7 8 8 9 9 9 9 8 8
Wind_Direction
274 282 288 286 288 283 278 279 279 286 283 289 295 297 291 289 303 309 309 309 304 282 276 256 248 238 189 174 153 151 154 154 155 150 144 139 141 144 154 149 149 139 131 131
279 278 277 284 283 285 286 282 286 286 287 283 298 307 297 309 308 317 326 340 345 336 319 287 251 234 182 187 166 149 140 135 139 139 145 141 140 155 153 152 152 159 153 146
276 285 291 280 276 291 306 311 309 313 314 332 319 317 304 311 312 335 358 33 4 5 30 358 330 290 184 167 155 171 147 144 142 151 147 147 151 153 153 155 158 154 149 151
265 282 273 284 330 341 306 305 318 324 333 333 324 296 296 357 7 10 8 17 354 289 301 284 285 273 199 152 156 153 148 149 143 155 150 149 152 154 153 154 152 146 151 152
261 278 296 292 79 341 324 309 5 336 332 332 313 320 74 33 348 315 342 342 348 338 326 314 322 311 165 154 144 137 157 152 149 152 151 150 157 159 155 151 146 145 146 145
271 282 284 304 6 342 322 275 0 334 324 308 311 15 316 332 326 329 318 340 354 4 344 341 351 130 147 162 164 162 163 161 148 159 152 156 158 157 157 152 148 152 150 159
266 271 283 294 357 335 278 339 326 316 310 306 334 339 307 309 317 320 309 332 344 354 12 10 21 2 207 170 184 173 153 143 157 158 152 150 154 156 157 153 148 145 145 145
267 259 274 0 343 341 306 300 303 304 305 310 320 324 331 331 322 326 316 326 334 338 359 29 37 344 228 202 164 159 165 156 143 149 143 144 148 151 151 148 140 138 134 136
303 298 318 316 314 297 292 286 291 288 298 315 313 316 320 320 321 323 317 320 308 309 329 341 355 342 223 172 174 154 157 161 151 141 145 143 138 150 155 151 153 154 161 153
289 280 298 308 299 300 311 314 316 310 321 332 333 326 317 309 308 309 309 311 312 268 266 263 286 310 341 159 160 162 157 155 153 148 147 147 145 153 155 159 164 162 159 159
273 282 291 276 296 311 322 319 324 333 331 335 336 337 339 318 307 309 306 307 296 273 251 239 226 203 160 156 160 159 155 150 150 150 148 145 152 159 169 168 170 163 167 165
262 271 301 292 306 314 308 316 340 337 332 339 345 335 334 333 326 314 314 314 306 292 266 222 211 202 164 152 162 153 147 147 151 151 149 146 147 130 106 137 136 127 144 159
262 277 285 295 297 293 329 338 342 339 339 335 336 333 330 324 327 316 315 326 323 325 289 223 199 200 175 156 144 150 152 152 149 152 152 156 155 158 149 138 141 140 149 150
286 298 277 296 322 326 333 335 344 339 346 339 332 334 333 330 323 325 335 331 329 324 307 247 215 193 173 163 151 146 149 149 151 151 150 155 157 158 150 152 158 159 153 155
299 285 327 325 328 333 337 334 341 341 341 343 345 340 337 334 329 320 312 327 327 324 320 278 229 194 166 165 156 150 150 150 148 148 149 147 148 146 144 153 159 154 155 162
323 324 320 334 343 341 341 340 339 340 340 331 337 338 340 337 330 324 311 335 339 334 337 331 347 144 157 157 149 145 149 146 145 149 145 146 151 149 151 154 153 153 161 166
337 348 350 344 349 344 341 335 336 334 335 340 327 325 335 346 342 344 334 337 340 328 341 323 133 133 134 138 148 145 141 138 143 144 149 150 149 155 160 153 157 163 162 160
345 354 352 344 341 334 336 334 334 335 334 334 328 320 330 338 338 332 327 305 309 336 27 69 104 121 126 131 134 136 141 143 146 150 147 153 158 160 162 160 162 161 154 164
358 2 358 352 346 339 333 335 334 329 333 334 330 322 319 320 326 329 329 323 308 317 60 107 114 121 128 127 130 137 143 147 150 152 155 156 162 164 165 163 163 162 157 161
327 334 341 339 336 337 334 338 333 331 330 335 328 335 329 329 328 326 331 329 318 314 295 151 145 136 130 134 136 139 145 148 151 153 153 160 160 161 162 167 165 156 159 163
310 323 327 326 333 327 326 328 329 333 329 318 319 327 324 320 320 324 328 336 5 346 307 176 161 147 151 151 147 146 146 151 154 158 161 160 155 165 164 162 161 159 165 168
330 335 338 340 333 325 336 334 343 337 329 330 330 318 323 328 328 322 284 302 330 347 313 198 205 171 163 168 161 158 159 163 162 162 160 156 160 160 159 160 162 163 167 169
330 328 329 330 325 318 315 317 336 336 335 338 333 328 328 321 317 316 316 348 337 332 293 232 210 150 155 193 162 168 169 163 162 163 161 161 162 163 164 167 165 167 168 173
334 333 326 325 316 314 323 331 329 326 330 327 331 332 327 326 326 314 295 304 307 305 293 230 180 164 175 164 165 167 164 165 163 159 162 164 165 165 164 165 165 169 168 171
329 321 323 323 323 331 334 326 321 336 324 328 331 335 337 329 296 312 305 303 293 292 280 206 205 186 184 167 171 177 175 172 168 166 164 168 167 169 166 168 168 171 171 175
335 335 327 329 329 323 326 331 323 323 334 322 321 327 326 323 317 307 302 290 285 276 263 216 198 197 202 188 179 176 177 175 174 174 173 174 175 173 172 171 166 170 167 163
323 319 330 323 327 331 329 322 317 321 324 320 319 321 319 313 320 319 317 288 272 265 251 231 214 208 206 203 198 189 186 185 185 185 180 175 175 173 170 167 163 160 157 156